COSMOS 2491 DEB, 44996

Orbit data source: Space-Track

COSMOS 2491 DEB, 44996 is space debris in LEO originally from a launch on Wed, 25 Dec 2013 UTC launched from the Plesetsk Missile And Space Complex (PKMTR). Debris objects in space refer to the collection of defunct objects orbiting the Earth. Examples of debris include non-operational satellites, rocket bodies, and fragments generated from explosions, collisions, or faulty payload assembly.

Loading next visibility...
Identifier
44996, 2013-076R
Orbit
LEO
Country
Flag of CISCIS
Related business
Manufacturer
TsNIIKhM
Mission
Spacecraft
Bus & Motor
Unknown
Mass
Unknown
Launch date (UTC)
2013-12-25 (12 years ago)
Launch vehicle
Unknown
Launch site
Plesetsk Missile And Space Complex (PKMTR)
Object type
Payload
Rocket body
Debris
Shape & HBR
Unknown shape, 0.1 m
Radar Cross Section
Small (<0.1 m²)

Expand to show TLE details & history
Last TLE update: 5 days ago

TLE from 5 days ago
0 COSMOS 2491 DEB
1 44996U 13076R   25307.73948120  .00000124  00000-0  82296-3 0  9997
2 44996  82.4787 309.3479 0011202 203.1203 156.9374 12.43301569264340
Epoch: 2025-11-03T17:44Z
TLE epoch observation values (Epoch: 2025-11-03T17:44:51.175Z)
Latitude
-0.00005°
Longitude
-0.10187°
Altitude
1,503.453 km
Speed
7.109 km/s
True Right ascension
20h 37m 23s
True Declination
0° 00' 00"
Sunlit
Object was in daylight at epoch
Visualization orbit readout
Latitude
Unknown
Longitude
Unknown
Altitude
Unknown
Speed
Unknown
Apparent Right ascension
Unknown
Apparent Declination
Unknown
Sunlit
N/A
Visualization observer readout
Local Sidereal Time
05:55:59
Azimuth
Unknown
Elevation
Unknown
Doppler factor
Unknown
Orbital elements
Apogee altitude
1,498.804 km
Perigee altitude
1,481.176 km
Semi-major axis
7,868.127 km
Eccentricity
0.00112
Inclination
82.4787°
RAAN
309.3479°
Arg. of periapsis
203.1203°
True anomaly
156.98762°
Mean anomaly
156.9374°
Eccentric anomaly
156.96252°
Mean motion
3.10983 °/min
Orbital period
115.76 mins
BSTAR
0.00082296
Loading maneuver chart data...
Computing Atmospheric mass density...
Loading historical data...
Loading historical data...
Loading historical data...
Loading historical data...
Loading historical data...
Loading historical data...
Loading historical data...

Documentation

Showing up to 5 results
|